Location: Darlington Observatory
(36.4817°N, 105.8156°W)
Time: 01:20:49
(UTC-06:00)

NOSS 3-3 (A) - Visible Passes

Search period start: 31 July 2015 00:00
Search period end: 10 August 2015 00:00
Orbit: 956 x 1257 km, 63.4° (Epoch: 29 July)

Date Brightness Start Highest point End Pass type
(mag) Time Alt. Az. Time Alt. Az. Time Alt. Az.
31 Jul 5.2 00:57:27 10° NW 01:02:50 41° W 01:02:50 41° W visible
31 Jul 5.8 22:22:18 10° NNW 22:28:19 27° NE 22:31:54 20° E visible
01 Aug 4.5 00:12:32 10° NW 00:19:20 69° W 00:19:20 69° W visible
01 Aug 6.2 21:38:13 10° N 21:43:02 19° NE 21:48:17 10° E visible
01 Aug 4.3 23:27:51 10° NNW 23:35:19 75° ENE 23:35:53 72° E visible
02 Aug 6.2 01:20:19 10° WNW 01:23:18 18° W 01:23:18 18° W visible
02 Aug 6.4 20:54:28 10° N 20:57:35 13° NNE 21:01:05 10° ENE visible
02 Aug 4.9 22:43:20 10° NNW 22:50:30 50° NE 22:52:28 42° E visible
03 Aug 5.5 00:34:40 10° NW 00:39:54 32° W 00:39:54 32° W visible
03 Aug 5.4 21:58:57 10° NNW 22:05:30 34° NE 22:09:06 24° E visible
03 Aug 4.7 23:49:34 10° NW 23:56:32 55° WSW 23:56:32 55° WSW visible
04 Aug 5.9 21:14:45 10° N 21:20:20 23° NE 21:25:47 12° E visible
04 Aug 4.3 23:04:45 10° NNW 23:12:15 85° WSW 23:13:13 71° SSE visible
05 Aug 6.4 00:58:23 10° WNW 01:00:39 14° W 01:00:39 14° W visible
05 Aug 6.2 20:30:45 10° N 20:35:00 16° NNE 20:39:39 10° ENE visible
05 Aug 4.5 22:20:08 10° NNW 22:27:31 65° NE 22:29:57 45° ESE visible
06 Aug 5.8 00:12:05 10° WNW 00:17:23 26° W 00:17:23 26° W visible
06 Aug 5.0 21:35:40 10° NNW 21:42:38 43° NE 21:46:44 25° ESE visible
06 Aug 5.1 23:26:42 10° NW 23:33:42 42° WSW 23:34:11 41° WSW visible
07 Aug 5.5 20:51:21 10° NNW 20:57:35 29° NE 21:03:34 12° E visible
07 Aug 4.6 22:41:43 10° NW 22:49:09 66° WSW 22:51:01 51° S visible
08 Aug 4.4 21:56:59 10° NNW 22:04:29 83° ENE 22:07:54 38° SE visible
08 Aug 6.1 23:49:49 10° WNW 23:54:58 19° WSW 23:55:22 19° WSW visible
09 Aug 4.7 21:12:26 10° NNW 21:19:42 55° NE 21:24:51 22° ESE visible
09 Aug 5.6 23:03:59 10° NW 23:10:31 31° WSW 23:12:19 28° SW visible
